Regional Weather Roundup
Issued by NWS

Home | Current Version | Previous Version | Graphics & Text | Print | Product List | Glossary On
Versions: 1 2 3 4 5 6 7 8 9 10 11 12 13 14 15 16 17 18 19 20 21 22 23 24 25 26 27 28 29 30 31 32 33 34 35 36 37 38 39 40 41 42 43 44 45 46 47 48 49 50
000
ASUS43 KBIS 151459
RWRND

NORTH DAKOTA REGIONAL WEATHER ROUNDUP
NATIONAL WEATHER SERVICE BISMARCK ND
1000 AM CDT TUE APR 15 2014

NOTE: "FAIR" INDICATES FEW OR NO CLOUDS BELOW 12,000 FEET WITH NO
SIGNIFICANT WEATHER AND/OR OBSTRUCTIONS TO VISIBILITY.


NDZ001>003-009>011-017-151600-
NORTHWEST NORTH DAKOTA

CITY           SKY/WX    TMP DP  RH WIND       PRES   REMARKS
WILLISTON      PTSUNNY   30  13  49 SE14      29.76F WCI  19
MINOT          CLOUDY    27   8  44 SE20      29.90F WCI  13
$$

NDZ018>021-031>035-040>046-151600-
SOUTHWEST NORTH DAKOTA

CITY           SKY/WX    TMP DP  RH WIND       PRES   REMARKS
BISMARCK       CLOUDY    28  14  55 S17       29.94F WCI  16
DICKINSON      CLOUDY    28  14  55 SE17      29.76F WCI  16
GARRISON         N/A     26  14  60 SE16G22   29.89F WCI  14
HETTINGER ARPT CLOUDY    29  15  56 SE16G22   29.78F WCI  17
$$

NDZ004>008-012>016-024-026-027-054-151600-
NORTHEAST NORTH DAKOTA

CITY           SKY/WX    TMP DP  RH WIND       PRES   REMARKS
GRAND FORKS    SUNNY     20   6  55 VRB3      30.11F
DEVILS LAKE    MOSUNNY   23   9  54 S13       30.03F WCI  11
$$

NDZ022-023-025-028>030-036>039-047>053-151600-
SOUTHEAST NORTH DAKOTA

CITY           SKY/WX    TMP DP  RH WIND       PRES   REMARKS
FARGO          SUNNY     22   4  46 CALM      30.16F
JAMESTOWN      CLOUDY    23  11  60 SE16      30.04F WCI  10
$$




USA.gov is the U.S. government's official web portal to all federal, state and local government web resources and services.